STARLINK-35712 (66215 NORAD) Tracking and Keplerian Element Data

This shows tracking and keplerian element data for the satellite.

Feedback or suggestion? Click here.




ElementValue
Catalog66215
NameSTARLINK-35712
Epoch Orbit943
Epoch Day353.98385932
Epoch Year2025
RAAN241.7384
Inclination53.159
Eccentricity7.67E-05
Argument of Perigee101.8787
Mean Anonmoly258.2304
Mean Motion15.39577823
Decay Rate0.00031167
L11 66215U 25244K 25353.98385932 .00031167 00000+0 78706-3 0 9990
L22 66215 53.1590 241.7384 0000767 101.8787 258.2304 15.39577823 9436



Live tracking and technical data element details for STARLINK-35712 (NORAD 66215). STARLINK-35712 can be tracked NOW for your location showing map with azimuth and elevation plus other details from your city location.







IsCatalogInMostPopularTable: catalog: 66215, numindb: 8
Update: records affected: 1



GetName: 66215 STARLINK-35712

Hit Count: updated at: Sat, 11 Apr 2026 21:43:40 GMT